DW3478 Weather Reports


Display with metric or nautical units.
time (UTC)temp
F
wind
direction
speed
MPH
gust
MPH
rain 1hr
in
rain 24hr
in
rain mn
in
humidity
%
barometer
mb
20260904183304 74 231 2.0 5.0 0.00 0.00 0.00 76 1020.0
20260904182805 74 232 1.0 3.0 0.00 0.00 0.00 76 1020.0
20260904181304 74 261 3.0 5.0 0.00 0.00 0.00 75 1020.0
20260904180305 74 276 4.0 6.0 0.00 0.00 0.00 76 1020.0
20260904175306 74 257 5.0 10.0 0.00 0.00 0.00 76 1020.0
20260904174805 75 252 3.0 6.0 0.00 0.00 0.00 76 1020.0
20260904171805 73 264 2.0 5.0 0.00 0.00 0.00 79 1020.0
20260904170304 73 275 3.0 5.0 0.00 0.00 0.00 78 1020.0
20260904165804 73 256 3.0 5.0 0.00 0.00 0.00 77 1020.0
20260904165305 73 242 2.0 3.0 0.00 0.00 0.00 77 1020.0
20260904164805 73 242 3.0 5.0 0.00 0.00 0.00 78 1020.0
20260904163304 73 211 2.0 5.0 0.00 0.00 0.00 78 1020.0
20260904162804 73 224 2.0 3.0 0.00 0.00 0.00 77 1020.0
20260904162306 73 212 3.0 5.0 0.00 0.00 0.00 77 1020.0
20260904155804 74 239 3.0 5.0 0.00 0.00 0.00 76 1021.0
20260904155306 74 146 3.0 6.0 0.00 0.00 0.00 77 1021.0
20260904153804 74 201 3.0 5.0 0.00 0.00 0.00 76 1021.0
20260904153304 74 125 3.0 5.0 0.00 0.00 0.00 76 1021.0
20260904152805 74 133 4.0 6.0 0.00 0.00 0.00 76 1021.0
20260904152306 74 137 5.0 6.0 0.00 0.00 0.00 75 1021.0
20260904151806 75 145 3.0 7.0 0.00 0.00 0.00 75 1021.0
20260904150805 75 192 5.0 7.0 0.00 0.00 0.00 74 1021.0
20260904150306 74 213 5.0 7.0 0.00 0.00 0.00 74 1021.0
20260904145306 76 172 3.0 7.0 0.00 0.00 0.00 72 1021.0
20260904144805 75 193 5.0 9.0 0.00 0.00 0.00 72 1021.0
20260904143805 75 231 5.0 10.0 0.00 0.00 0.00 72 1021.0
20260904143305 77 200 6.0 10.0 0.00 0.00 0.00 70 1021.0
20260904142805 75 197 6.0 12.0 0.00 0.00 0.00 72 1021.0
20260904142306 77 191 5.0 10.0 0.00 0.00 0.00 70 1021.0
20260904140306 76 209 5.0 9.0 0.00 0.00 0.00 69 1021.0
20260904134306 77 198 5.0 9.0 0.00 0.00 0.00 68 1021.0
20260904131305 76 221 4.0 7.0 0.00 0.00 0.00 71 1021.0
20260904125306 77 265 5.0 9.0 0.00 0.00 0.00 70 1021.0
20260904124806 76 251 4.0 9.0 0.00 0.00 0.00 70 1021.0
20260904124306 76 250 5.0 7.0 0.00 0.00 0.00 72 1021.0
20260904123305 76 246 4.0 9.0 0.00 0.00 0.00 71 1022.0
20260904122805 76 259 5.0 7.0 0.00 0.00 0.00 71 1022.0
20260904122307 75 237 5.0 7.0 0.00 0.00 0.00 72 1022.0
20260904115805 75 238 5.0 9.0 0.00 0.00 0.00 72 1022.0
20260904115307 77 238 5.0 9.0 0.00 0.00 0.00 70 1022.0
20260904112806 74 250 3.0 7.0 0.00 0.00 0.00 72 1022.0
20260904112306 76 255 3.0 6.0 0.00 0.00 0.00 72 1022.0
20260904111805 75 242 4.0 6.0 0.00 0.00 0.00 72 1022.0
20260904111306 75 201 4.0 8.0 0.00 0.00 0.00 73 1022.0
20260904101805 74 182 3.0 6.0 0.00 0.00 0.00 74 1022.0
20260904101306 74 149 5.0 9.0 0.00 0.00 0.00 76 1022.0
20260904100805 73 180 5.0 9.0 0.00 0.00 0.00 75 1021.0
20260904095805 73 98 6.0 9.0 0.00 0.00 0.00 75 1021.0
20260904094805 74 134 5.0 9.0 0.00 0.00 0.00 75 1021.0
20260904094305 73 169 5.0 10.0 0.00 0.00 0.00 75 1021.0
20260904093805 74 163 4.0 10.0 0.00 0.00 0.00 74 1021.0
20260904093305 74 170 5.0 7.0 0.00 0.00 0.00 74 1021.0
20260904092805 73 92 5.0 9.0 0.00 0.00 0.00 75 1021.0
20260904092306 73 120 5.0 9.0 0.00 0.00 0.00 76 1021.0
20260904085805 73 155 5.0 9.0 0.00 0.00 0.00 76 1021.0
20260904085306 72 111 5.0 9.0 0.00 0.00 0.00 76 1021.0
20260904083805 72 120 3.0 6.0 0.00 0.00 0.00 75 1021.0
20260904082805 72 41 5.0 8.0 0.00 0.00 0.00 75 1021.0
20260904082306 72 88 5.0 7.0 0.00 0.00 0.00 75 1021.0
20260904074305 68 56 2.0 6.0 0.00 0.00 0.00 79 1021.0
20260904072306 67 44 2.0 3.0 0.00 0.00 0.00 81 1021.0
20260904071805 66 44 0.0 2.0 0.00 0.00 0.00 81 1021.0
20260904071305 66 66 0.0 0.0 0.00 0.00 0.00 81 1021.0
20260904070805 66 53 0.0 0.0 0.00 0.00 0.00 81 1021.0
20260904070305 66 43 0.0 0.0 0.00 0.00 0.00 80 1021.0
20260904065805 66 55 0.0 0.0 0.00 0.00 0.00 80 1021.0
20260904064805 66 42 0.0 0.0 0.00 0.00 0.00 81 1021.0
20260904064305 66 39 0.0 0.0 0.00 0.00 0.00 81 1021.0
20260904063806 66 37 0.0 0.0 0.00 0.00 0.00 82 1021.0
20260904062805 66 42 0.0 0.0 0.00 0.00 0.00 82 1021.0
20260904062306 66 28 0.0 0.0 0.00 0.00 0.00 82 1021.0
20260904061805 66 26 0.0 0.0 0.00 0.00 0.00 82 1021.0
20260904061305 66 36 0.0 0.0 0.00 0.00 0.00 82 1021.0
20260904060805 66 28 0.0 0.0 0.00 0.00 0.00 82 1020.0
20260904060305 67 355 0.0 0.0 0.00 0.00 0.00 82 1020.0
20260904054804 67 16 0.0 0.0 0.00 0.00 0.00 82 1020.0
20260904054305 67 296 0.0 0.0 0.00 0.00 0.00 81 1020.0
20260904053805 67 340 0.0 0.0 0.00 0.00 0.00 81 1020.0
20260904053305 67 330 0.0 0.0 0.00 0.00 0.00 81 1020.0
20260904052805 67 339 0.0 0.0 0.00 0.00 0.00 80 1020.0
20260904052307 67 342 0.0 0.0 0.00 0.00 0.00 80 1020.0
20260904051804 68 329 0.0 0.0 0.00 0.00 0.00 80 1020.0
20260904051305 68 357 0.0 0.0 0.00 0.00 0.00 80 1020.0
20260904050805 68 14 0.0 0.0 0.00 0.00 0.00 80 1020.0
20260904042805 70 312 0.0 0.0 0.00 0.00 0.00 81 1020.0
20260904042306 70 39 0.0 0.0 0.00 0.00 0.00 81 1020.0
20260904040305 70 289 0.0 3.0 0.00 0.00 0.00 81 1020.0
20260904035805 70 357 0.0 2.0 0.00 0.00 0.00 81 1020.0
20260904033805 70 288 0.0 1.0 0.00 0.00 0.00 81 1021.0
20260904033305 70 325 0.0 1.0 0.00 0.00 0.00 81 1021.0
20260904032805 70 355 0.0 1.0 0.00 0.00 0.00 81 1021.0
20260904032306 70 335 1.0 3.0 0.00 0.00 0.00 81 1021.0
20260904030805 70 304 1.0 3.0 0.00 0.00 0.00 81 1021.0
20260904023805 70 332 0.0 2.0 0.00 0.00 0.00 81 1021.0
20260904023305 70 329 0.0 1.0 0.00 0.00 0.00 81 1021.0
20260904022805 70 1 0.0 1.0 0.00 0.00 0.00 81 1021.0
20260904020805 70 355 0.0 0.0 0.00 0.00 0.00 81 1022.0
20260904015306 71 36 0.0 2.0 0.00 0.00 0.00 81 1022.0
20260904014304 71 291 0.0 0.0 0.00 0.00 0.00 81 1022.0
20260904013805 71 313 0.0 0.0 0.00 0.00 0.00 81 1022.0
20260904011804 71 305 0.0 1.0 0.00 0.00 0.00 81 1022.0
20260904011305 71 140 0.0 1.0 0.00 0.00 0.00 82 1022.0
20260904004304 71 77 0.0 3.0 0.00 0.00 0.00 82 1022.0
20260904002805 71 163 0.0 1.0 0.00 0.00 0.00 82 1022.0
20260904002306 71 163 1.0 2.0 0.00 0.00 0.00 82 1022.0
20260904001305 71 122 0.0 1.0 0.00 0.00 0.00 82 1022.0
20260904000804 71 113 0.0 1.0 0.00 0.00 0.00 82 1022.0
20260903235804 71 195 1.0 3.0 0.00 0.00 0.00 82 1022.0
20260903235306 71 220 0.0 2.0 0.00 0.00 0.00 82 1022.0
20260903234805 71 61 0.0 0.0 0.00 0.00 0.00 82 1022.0
20260903234305 71 61 0.0 1.0 0.00 0.00 0.00 82 1022.0
20260903233305 71 82 1.0 3.0 0.00 0.00 0.00 82 1022.0
20260903232805 71 116 1.0 5.0 0.00 0.00 0.00 82 1022.0
20260903232306 71 142 2.0 5.0 0.00 0.00 0.00 83 1022.0
20260903231804 71 185 1.0 3.0 0.00 0.00 0.00 83 1022.0
20260903224805 71 199 0.0 1.0 0.00 0.00 0.00 83 1022.0
20260903224304 71 186 0.0 2.0 0.00 0.00 0.00 83 1022.0
20260903223805 71 186 0.0 1.0 0.00 0.00 0.00 83 1022.0
20260903221804 71 171 0.0 3.0 0.00 0.00 0.00 83 1022.0
20260903221305 71 182 1.0 2.0 0.00 0.00 0.00 83 1022.0
20260903220804 71 162 0.0 3.0 0.00 0.00 0.00 83 1022.0
20260903214304 71 187 1.0 3.0 0.00 0.00 0.00 83 1022.0
20260903213304 71 198 0.0 3.0 0.00 0.00 0.00 83 1021.0
20260903212804 72 186 1.0 3.0 0.00 0.00 0.00 83 1021.0
20260903212306 72 191 2.0 3.0 0.00 0.00 0.00 83 1021.0
20260903211805 72 198 2.0 3.0 0.00 0.00 0.00 83 1021.0
20260903210304 72 150 3.0 3.0 0.00 0.00 0.00 82 1021.0
20260903201804 72 137 2.0 5.0 0.00 0.00 0.00 82 1021.0
20260903201305 72 134 3.0 6.0 0.00 0.00 0.00 82 1021.0
20260903200804 72 139 3.0 7.0 0.00 0.00 0.00 82 1020.0
20260903200305 72 124 4.0 6.0 0.00 0.00 0.00 82 1020.0
20260903195306 72 156 3.0 6.0 0.00 0.00 0.00 82 1020.0
20260903194805 72 138 4.0 6.0 0.00 0.00 0.00 82 1020.0
20260903193804 72 112 4.0 9.0 0.00 0.00 0.00 82 1020.0
20260903193305 72 126 5.0 9.0 0.00 0.00 0.00 81 1020.0
20260903191805 72 96 6.0 9.0 0.00 0.00 0.00 81 1020.0
20260903191304 72 114 5.0 10.0 0.00 0.00 0.00 81 1020.0
20260903190805 72 87 4.0 12.0 0.00 0.00 0.00 80 1020.0